Regional Weather Roundup
Issued by NWS

Home | Current Version | Previous Version | Text Only | Print | Product List | Glossary Off
Versions: 1 2 3 4 5 6 7 8 9 10 11 12 13 14 15 16 17 18 19 20 21 22 23 24 25 26 27 28 29 30 31 32 33 34 35 36 37 38 39 40 41 42 43 44 45 46 47 48 49 50

000
ASUS43 KMKX 251100
RWRWI

WISCONSIN REGIONAL WEATHER ROUNDUP
NATIONAL WEATHER SERVICE MILWAUKEE/SULLIVAN WI
600 AM CDT SAT OCT 25 2014

NOTE: "FAIR" INDICATES FEW OR NO CLOUDS BELOW 12,000 FEET WITH NO
SIGNIFICANT WEATHER AND/OR OBSTRUCTIONS TO VISIBILITY.

WIZ001-002-006>008-014>016-023>028-251200-
NORTHWEST WISCONSIN

CITY           SKY/WX    TMP DP  RH WIND       PRES   REMARKS
SUPERIOR ARPT  CLEAR     47  35  63 SW7       29.86R
ASHLAND        CLEAR     48  36  63 SW8       29.83R
HAYWARD        CLEAR     51  34  52 W6        29.88R
SIREN          CLEAR     48  35  59 W8        29.93R
CUMBERLAND     CLEAR     46  34  61 W10       29.92R
RICE LAKE      CLEAR     46  37  71 W5        29.92R
CHETEK         CLEAR     50  38  64 W6        29.91R
LADYSMITH      CLEAR     50  39  65 W9        29.89R
EAU CLAIRE     NOT AVBL
MENOMONIE      CLEAR     51  38  61 W7        29.93R
NEW RICHMOND   CLEAR     50  36  58 W9        29.95R
OSCEOLA        CLEAR     53  36  53 W9        29.98R
$$

WIZ003>005-009-010-017-018-251200-
NORTH CENTRAL WISCONSIN

CITY           SKY/WX    TMP DP  RH WIND       PRES   REMARKS
MANITOWISH WTR CLEAR     46  41  82 W6        29.81R
ARBOR VITAE    CLEAR     52  43  71 W8        29.81S
WOODRUFF       CLEAR     52  43  71 W8        29.81S
RHINELANDER    CLEAR     46  39  76 W10       29.82S
EAGLE RIVER    CLEAR     48  38  68 W8        29.79S
LAND O LAKES   CLEAR     48  42  79 W5        29.79S
PHILLIPS       CLEAR     45  41  87 W5        29.85R
TOMAHAWK       CLEAR     45  40  82 W6        29.84S
MEDFORD        CLEAR     47  43  84 W7        29.86S
MERRILL        CLEAR     47  44  90 W6        29.84R
$$

WIZ029-030-035-036-043>047-251200-
CENTRAL WISCONSIN

CITY           SKY/WX    TMP DP  RH WIND       PRES   REMARKS
WAUSAU         CLEAR     50  47  89 W10       29.84R
MOSINEE        CLEAR     48  48 100 W10       29.87R
MARSHFIELD     CLEAR     50  45  83 W9        29.88R
STEVENS POINT  CLEAR     50  47  89 W7        29.86S
WAUPACA        CLEAR     55  53  94 W7        29.85S FOG
WAUTOMA        NOT AVBL
WISC RAPIDS    CLEAR     51  48  89 W7        29.89R
CAMP DOUGLAS   NOT AVBL
$$

WIZ011>013-019>022-031-037>040-048>050-251200-
NORTHEAST WISCONSIN

CITY           SKY/WX    TMP DP  RH WIND       PRES   REMARKS
ANTIGO         CLEAR     49  46  90 W10       29.82R
SHAWANO        CLEAR     55  52  90 SW6       29.81S FOG
OCONTO         CLEAR     53  53 100 W9        29.78S
STURGEON BAY   CLEAR     54  50  87 W10       29.79R
GREEN BAY      CLEAR     54  52  93 W10       29.82R FOG
MANITOWOC      NOT AVBL
APPLETON       PTCLDY    52  52 100 W9        29.84R FOG
CLINTONVILLE   CLEAR     52  50  93 W7        29.82S
OSHKOSH        CLEAR     54  53  97 W7        29.84S FOG
$$

WIZ032>034-041-042-053>061-251200-
SOUTHWEST WISCONSIN

CITY           SKY/WX    TMP DP  RH WIND       PRES   REMARKS
LA CROSSE      FOG       46  45  96 CALM      29.94R VSB 1/4
SPARTA         FOG       43  43 100 CALM      29.92S VSB 1/4
VIROQUA        CLEAR     52  52 100 W6        29.93S
BOSCOBEL       FOG       54  52  93 SW3       29.94R VSB 1/4
PRAIRIE DU CHI CLEAR     52  49  89 W6        29.95R
PLATTEVILLE    CLEAR     55  54  97 CALM      29.94S
$$

WIZ056-057-062-063-064-067-068-251200-
SOUTH CENTRAL WISCONSIN

CITY           SKY/WX    TMP DP  RH WIND       PRES   REMARKS
REEDSBURG      CLEAR     53  51  90 CALM      29.91R
BARABOO/DELLS  CLEAR     54  50  86 W7        29.91R
LONE ROCK      CLEAR     59  54  82 W7        29.92R HAZE
MINERAL POINT  FOG       55  54  94 W7        29.93R VSB 1/2
MADISON        CLEAR     56  53  90 VRB7      29.90R
MIDDLETON      CLEAR     56  55  99 W8        29.90S
WATERTOWN      FOG       50  50 100 W3        29.88R VSB 1
MONROE         PTCLDY    55  54  94 W13       29.92R FOG
JANESVILLE     CLEAR     55  54  94 W7        29.91R FOG
$$

WIZ051-052-058>065-066-070>072-251200-
SOUTHEAST WISCONSIN

CITY           SKY/WX    TMP DP  RH WIND       PRES   REMARKS
MILWAUKEE      PTCLDY    56  52  86 W10       29.88R
WAUKESHA       PTCLDY    54  52  94 W9        29.89S FOG
MILWAUKEE/TIMM CLEAR     54  52  94 W8        29.87R FOG
RACINE         CLEAR     56  52  86 W8        29.88R FOG
BURLINGTON     CLEAR     51  51  98 CALM      29.88F FOG
KENOSHA        CLEAR     55  53  93 W10       29.87F FOG
FOND DU LAC    CLEAR     55  52  89 W7        29.86R
SHEBOYGAN      MOCLDY    55  52  89 W9        29.84R
WEST BEND      PTCLDY    54  50  87 W3        29.86R FOG
JUNEAU         FOG       49  49  99 SW8       29.88S VSB<1/4
$$

LSZ147-162-251200-
LAKE SUPERIOR

STATION/POSITION TIME  TEMP    WIND        PRES    WAVE
                       AIR SEA DIR/SP/G            HT/PER
                 (UTC) (F)     (DEG/KT/KT) (MB)    (FT/S)
W MID LAKE BUOY  0950   52 46  250/ 21/ 25 1005.3F   3/ 5
DEVILS ISLAND    1000   54     260/ 23/ 27 1008.0R
PORT WING        1040   54     250/ 13/ 18 1010.5R
SAXON HARBOR     1040   55     230/  6/ 13 1009.5R
$$

LMZ867-665-643>646-251200-
LAKE MICHIGAN

STATION/POSITION TIME  TEMP    WIND        PRES    WAVE
                       AIR SEA DIR/SP/G            HT/PER
                 (UTC) (F)     (DEG/KT/KT) (MB)    (FT/S)
CHAMBERS ISLAND  1000   53     210/  4/ 10 1007.8S
N MID LAKE BUOY  0950   53 51  240/ 16/ 17 1006.4F   3/ 6
NORTHPORT PIER   1000   55     270/  7/ 13 1007.1R
SISTER BAY       1043          250/ 12/ 14   N/A
ALGOMA LAKESHORE 0841          280/  7/ 10   N/A
KEWAUNEE LAKESHO 1000   56     280/  9/ 11 1007.8F
SHEBOYGAN LAKESH 1000   56 51  280/ 15/ 17 1010.3R
PORT WASHINGTON  1000   57     280/  9/ 15 1011.2R
ATWATER BUOY     1000   57     260/ 14/ 17 1011.7F
MILWAUKEE LAKESH 1000   58     280/ 11/ 14   N/A
S MID LAKE BUOY  0950   56 54  250/ 14/ 16 1011.3S   1/ 3
KENOSHA   LAKESH 1000   58     270/ 13/ 16 1011.5F
$$

TC  - TEMPERATURE IN CELSIUS
VSB - VISIBILITY IN STATUTE MILES
WCI - WIND CHILL INDEX
HX  - HEAT INDEX




USA.gov is the U.S. government's official web portal to all federal, state and local government web resources and services.